This is the latest recevied weather packets stored in our database for station/object SP1BMW-13. If no packets are shown the sender has not sent any weather packets the latest 10 day(s).
| Time | Temp. | Humidity | Pressure | Rain* | Wind** | Luminosity | Snow |
|---|---|---|---|---|---|---|---|
| 1777308893 | 12.22° C | 38% | 1021.8 hPa | 0 mm | 2.68 m/s, 304° | 88 W/m² | - |
| 1777308832 | 12.22° C | 39% | 1021.8 hPa | 0 mm | 1.79 m/s, 329° | 94 W/m² | - |
| 1777308772 | 12.22° C | 39% | 1021.7 hPa | 0 mm | 1.79 m/s, 329° | 101 W/m² | - |
| 1777308713 | 12.22° C | 40% | 1021.9 hPa | 0 mm | 0.45 m/s, 279° | 106 W/m² | - |
| 1777308653 | 12.22° C | 39% | 1021.9 hPa | 0 mm | 1.79 m/s, 16° | 111 W/m² | - |
| 1777308593 | 12.22° C | 39% | 1021.8 hPa | 0 mm | 1.34 m/s, 318° | 105 W/m² | - |
| 1777308532 | 12.22° C | 39% | 1022 hPa | 0 mm | 0.89 m/s, 53° | 100 W/m² | - |
| 1777308472 | 12.22° C | 39% | 1021.8 hPa | 0 mm | 4.02 m/s, 311° | 102 W/m² | - |
| 1777308412 | 12.22° C | 39% | 1021.8 hPa | 0 mm | 0.89 m/s, 13° | 105 W/m² | - |
| 1777308352 | 12.22° C | 39% | 1021.8 hPa | 0 mm | 1.79 m/s, 296° | 112 W/m² | - |
| 1777308292 | 12.78° C | 39% | 1021.8 hPa | 0 mm | 2.24 m/s, 358° | 118 W/m² | - |
| 1777308232 | 12.78° C | 39% | 1021.7 hPa | 0 mm | 2.24 m/s, 283° | 122 W/m² | - |
| 1777308173 | 12.78° C | 38% | 1021.8 hPa | 0 mm | 1.79 m/s, 296° | 131 W/m² | - |
| 1777308112 | 12.78° C | 39% | 1021.7 hPa | 0 mm | 0.89 m/s, 300° | 133 W/m² | - |
| 1777308052 | 12.78° C | 39% | 1021.8 hPa | 0 mm | 1.34 m/s, 288° | 137 W/m² | - |
| 1777307992 | 12.78° C | 39% | 1021.7 hPa | 0 mm | 0.89 m/s, 336° | 140 W/m² | - |
| 1777307932 | 12.78° C | 38% | 1021.7 hPa | 0 mm | 2.68 m/s, 267° | 141 W/m² | - |
| 1777307872 | 12.78° C | 38% | 1021.7 hPa | 0 mm | 1.79 m/s, 347° | 141 W/m² | - |
| 1777307812 | 12.78° C | 38% | 1021.7 hPa | 0 mm | 2.68 m/s, 327° | 140 W/m² | - |
| 1777307753 | 12.78° C | 37% | 1021.8 hPa | 0 mm | 2.24 m/s, 36° | 148 W/m² | - |
| 1777307693 | 12.78° C | 38% | 1021.5 hPa | 0 mm | 0.89 m/s, 352° | 144 W/m² | - |
| 1777307632 | 12.78° C | 38% | 1021.7 hPa | 0 mm | 1.79 m/s, 339° | 149 W/m² | - |
| 1777307572 | 12.78° C | 39% | 1021.8 hPa | 0 mm | 0.45 m/s, 356° | 150 W/m² | - |
| 1777307512 | 12.78° C | 38% | 1021.8 hPa | 0 mm | 0.89 m/s, 8° | 147 W/m² | - |
| 1777307453 | 12.78° C | 39% | 1021.8 hPa | 0 mm | 1.79 m/s, 259° | 148 W/m² | - |
* Rain latest hour (hover to see other rain measurements)
** Current wind speed in m/s (hover to see current wind gust speed)